Nashua, NH

8:01 AM EDT on August 19, 2019 (GMT -0400)
Boire

Weather History for KASH - May, 2019

Change the Weather History Date:

Monday, May 13, 2019

  Actual Average Record
Temperature  
Mean Temperature 48 °F -  
Max Temperature 57 °F 68 °F 85 °F (1956)
Min Temperature 41 °F 43 °F 28 °F (1962)
Degree Days  
Heating Degree Days 17    
Moisture  
Dew Point 40 °F    
Average Humidity 84    
Maximum Humidity 100    
Minimum Humidity 43    
Precipitation  
Precipitation 0.42 in - - ()
Sea Level Pressure  
Sea Level Pressure 29.97 in    
Wind  
Wind Speed 5 mph (ENE)    
Max Wind Speed 17 mph    
Max Gust Speed 25 mph    
Visibility 8 miles    
Events Rain    
Averages and records for this station are not official NWS values.
T = Trace of Precipitation, MM = Missing Value Source: NWS Daily Summary

Daily Weather History Graph

Daily Weather History Graph

Search for Another Location

Airport or City:

Astronomy

May. 13, 2019 Rise Set
Actual Time 5:25 AM EDT 7:59 PM EDT
Civil Twilight 4:53 AM EDT 8:31 PM EDT
Nautical Twilight 4:13 AM EDT 9:12 PM EDT
Astronomical Twilight 3:27 AM EDT 9:58 PM EDT
Moon 1:57 PM EDT (5/13) 2:53 AM EDT (5/13)
Length of Visible Light 15h 38m
Length of Day
14h 33m
Waxing Gibbous, 68% of the Moon is Illuminated
May 13
Waxing Gibbous
May 18
Full
May 26
Last Quarter
Jun 3
New
Jun 10
First Quarter

Hourly Weather History & Observations

Time (EDT) Temp. Windchill Dew Point Humidity Pressure Visibility Wind Dir Wind Speed Gust Speed Precip Events Conditions
12:56 AM 45.0 °F - 43.0 °F 93% 30.01 in 10.0 mi Calm Calm - N/A   Overcast
1:56 AM 44.1 °F - 44.1 °F 100% 30.00 in 10.0 mi Calm Calm - N/A   Overcast
2:56 AM 44.1 °F - 44.1 °F 100% 29.99 in 10.0 mi Calm Calm - N/A   Overcast
3:56 AM 45.0 °F - 44.1 °F 97% 29.98 in 10.0 mi Calm Calm - N/A   Overcast
4:56 AM 44.1 °F 42.5 °F 43.0 °F 96% 29.98 in 10.0 mi NW 3.5 mph - N/A   Overcast
5:56 AM 42.1 °F - 42.1 °F 100% 29.97 in 10.0 mi Calm Calm - N/A   Mostly Cloudy
6:56 AM 43.0 °F 39.5 °F 43.0 °F 100% 30.01 in 10.0 mi WNW 5.8 mph - N/A   Partly Cloudy
7:56 AM 50.0 °F - 37.0 °F 61% 30.01 in 10.0 mi East 4.6 mph - N/A   Mostly Cloudy
8:56 AM 54.0 °F - 32.0 °F 43% 30.01 in 10.0 mi East 11.5 mph - N/A   Mostly Cloudy
9:56 AM 55.0 °F - 33.1 °F 43% 30.03 in 10.0 mi East 9.2 mph - N/A   Overcast
10:56 AM 55.0 °F - 33.1 °F 43% 30.01 in 10.0 mi ESE 11.5 mph 18.4 mph N/A   Overcast
11:56 AM 55.0 °F - 35.1 °F 47% 30.00 in 10.0 mi East 16.1 mph 21.9 mph N/A   Overcast
12:56 PM 55.9 °F - 37.0 °F 49% 29.98 in 10.0 mi ESE 15.0 mph 20.7 mph N/A   Overcast
1:56 PM 55.9 °F - 37.9 °F 51% 29.96 in 10.0 mi East 15.0 mph 25.3 mph N/A   Overcast
2:56 PM 55.0 °F - 37.0 °F 51% 29.95 in 10.0 mi ESE 17.3 mph 25.3 mph N/A   Overcast
3:56 PM 53.1 °F - 37.9 °F 57% 29.96 in 10.0 mi ESE 15.0 mph 19.6 mph N/A   Overcast
4:56 PM 50.0 °F - 37.9 °F 63% 29.96 in 7.0 mi East 17.3 mph 25.3 mph 0.00 in Rain Light Rain
5:56 PM 46.0 °F 41.4 °F 43.0 °F 89% 29.97 in 6.0 mi East 9.2 mph - 0.04 in Rain Light Rain
6:20 PM 44.6 °F 41.4 °F 44.6 °F 100% 29.92 in 6.0 mi East 5.8 mph - 0.02 in Rain Light Rain
6:56 PM 44.1 °F 40.8 °F 44.1 °F 100% 29.96 in 6.0 mi ENE 5.8 mph - 0.05 in Rain Light Rain
7:08 PM 44.6 °F 39.7 °F 44.6 °F 100% 29.92 in 5.0 mi ENE 9.2 mph - 0.00 in Rain Light Rain
7:56 PM 43.0 °F 39.5 °F 43.0 °F 100% 29.95 in 5.0 mi East 5.8 mph - 0.09 in Rain Light Rain
8:03 PM 42.8 °F 39.3 °F 42.8 °F 100% 29.92 in 5.0 mi Variable 5.8 mph - 0.01 in Rain Rain
8:56 PM 42.1 °F 40.2 °F 41.0 °F 96% 29.97 in 6.0 mi NE 3.5 mph - 0.07 in Rain Light Rain
9:56 PM 41.0 °F 39.0 °F 41.0 °F 100% 29.99 in 6.0 mi NE 3.5 mph - 0.07 in Rain Light Rain
10:32 PM 41.0 °F 38.0 °F 41.0 °F 100% 29.94 in 8.0 mi Variable 4.6 mph - 0.03 in Rain Light Rain
10:45 PM 41.0 °F 37.1 °F 41.0 °F 100% 29.93 in 6.0 mi Variable 5.8 mph - 0.05 in Rain Rain
10:56 PM 41.0 °F 37.1 °F 41.0 °F 100% 29.96 in 9.0 mi NE 5.8 mph - 0.07 in Rain Light Rain
11:12 PM 41.0 °F 36.4 °F 41.0 °F 100% 29.93 in 10.0 mi Variable 6.9 mph - 0.01 in Rain Light Rain
11:19 PM 42.8 °F 38.6 °F 42.8 °F 100% 29.93 in 10.0 mi East 6.9 mph - 0.01 in Rain Light Rain
11:37 PM 42.8 °F 38.0 °F 41.0 °F 93% 29.92 in 10.0 mi East 8.1 mph - 0.02 in Rain Light Rain
11:56 PM 41.0 °F 38.0 °F 41.0 °F 100% 29.95 in 7.0 mi ENE 4.6 mph - 0.03 in Rain Light Rain